Telfer, Australia

10:13 PM AWST on February 22, 2017 (GMT +0800)
Telfer

Weather History for YTEF - March, 2013

Change the Weather History Date:

Wednesday, March 20, 2013

  Actual Average Record
Temperature  
Mean Temperature 97 °F -  
Max Temperature 109 °F - - ()
Min Temperature 85 °F - - ()
Cooling Degree Days 32    
Growing Degree Days 47 (Base 50)    
Moisture  
Dew Point 55 °F    
Average Humidity 22    
Maximum Humidity 35    
Minimum Humidity 8    
Precipitation  
Precipitation 0.00 in - - ()
Sea Level Pressure  
Sea Level Pressure 29.84 in    
Wind  
Wind Speed 5 mph ()    
Max Wind Speed 13 mph    
Max Gust Speed -    
T = Trace of Precipitation, MM = Missing Value Source: Averaged Metar Reports

Daily Weather History Graph

Daily Weather History Graph

Search for Another Location

Airport or City:

Trip Planner

Search our weather history database for the weather conditions in past years. The results will help you decide how hot, cold, wet, or windy it might be!

Date:

Astronomy

Mar. 20, 2013 Rise Set
Actual Time 5:54 AM AWST 6:02 PM AWST
Civil Twilight 5:32 AM AWST 6:24 PM AWST
Nautical Twilight 5:06 AM AWST 6:50 PM AWST
Astronomical Twilight 4:40 AM AWST 7:16 PM AWST
Moon 12:52 PM AWST (3/20) No Moon Set
Length of Visible Light 12h 51m
Length of Day
12h 07m
First Quarter, 54% of the Moon is Illuminated
Mar 20
First Quarter
Mar 27
Full
Apr 3
Last Quarter
Apr 10
New
Apr 18
First Quarter

Hourly Weather History & Observations

Time (AWST) Temp. Heat Index Dew Point Humidity Pressure Visibility Wind Dir Wind Speed Gust Speed Precip Events Conditions
12:00 AM 87 °F - 55 °F 24% 29.83 in - Calm Calm - -  
12:00 AM 87.8 °F 86.1 °F 55.4 °F 33% 29.89 in - Calm Calm - N/A   Unknown
1:00 AM 87.8 °F 86.1 °F 55.4 °F 33% 29.86 in - Calm Calm - N/A   Unknown
2:00 AM 88 °F - 54 °F 21% 29.81 in - West 4.6 mph - -  
2:00 AM 87.8 °F 85.7 °F 53.6 °F 31% 29.86 in - West 4.6 mph - N/A   Unknown
3:00 AM 90 °F - 55 °F 21% 29.81 in - WSW 10.4 mph - -  
3:00 AM 89.6 °F 87.7 °F 55.4 °F 31% 29.86 in - WSW 10.4 mph - N/A   Unknown
4:00 AM 89.6 °F 87.7 °F 55.4 °F 31% 29.86 in - WSW 9.2 mph - N/A   Unknown
5:00 AM 89 °F - 56 °F 23% 29.82 in - WSW 12.7 mph - -  
5:00 AM 89.6 °F 87.7 °F 55.4 °F 31% 29.86 in - WSW 12.7 mph - N/A   Unknown
6:00 AM 87 °F - 56 °F 25% 29.83 in - WSW 11.5 mph - -  
6:00 AM 87.8 °F 86.5 °F 57.2 °F 35% 29.89 in - WSW 11.5 mph - N/A   Unknown
7:00 AM 89.6 °F 88.1 °F 57.2 °F 33% 29.92 in - WSW 9.2 mph - N/A   Unknown
8:00 AM 94 °F - 56 °F 19% 29.89 in - WNW 5.8 mph - -  
8:00 AM 95.0 °F 93.7 °F 57.2 °F 28% 29.95 in - WNW 5.8 mph - N/A   Unknown
9:00 AM 98 °F - 57 °F 17% 29.88 in - SW 8.1 mph - -  
9:00 AM 98.6 °F 97.6 °F 57.2 °F 25% 29.95 in - SW 8.1 mph - N/A   Unknown
10:00 AM 100.4 °F 100.2 °F 59.0 °F 25% 29.92 in - SW 5.8 mph - N/A   Unknown
11:00 AM 103 °F - 54 °F 12% 29.84 in - NNE 4.6 mph - -  
11:00 AM 102.2 °F 100.4 °F 53.6 °F 20% 29.89 in - NNE 4.6 mph - N/A   Unknown
12:00 PM 105 °F - 53 °F 10% 29.81 in - WNW 5.8 mph - -  
12:00 PM 104.0 °F - 51.8 °F 17% 29.86 in - WNW 5.8 mph - N/A   Unknown
1:00 PM 107.6 °F 106.1 °F 53.6 °F 17% 29.83 in - WNW 10.4 mph - N/A   Unknown
2:00 PM 108 °F - 51 °F 8% 29.76 in - SSW 4.6 mph - -  
2:00 PM 107.6 °F - 50.0 °F 15% 29.83 in - SSW 4.6 mph - N/A   Unknown
3:00 PM 106 °F - 49 °F 8% 29.75 in - South 5.8 mph - -  
3:00 PM 105.8 °F - 48.2 °F 14% 29.80 in - South 5.8 mph - N/A   Unknown
4:00 PM 105.8 °F 104.3 °F 53.6 °F 18% 29.80 in - ENE 5.8 mph - N/A   Unknown
5:00 PM 104 °F - 49 °F 9% 29.75 in - NNE 5.8 mph - -  
5:00 PM 104.0 °F - 50.0 °F 16% 29.80 in - NNE 5.8 mph - N/A   Unknown
6:00 PM 101 °F - 55 °F 13% 29.75 in - NE 2.3 mph - -  
6:00 PM 100.4 °F 98.8 °F 55.4 °F 22% 29.80 in - NE 2.3 mph - N/A   Unknown
7:00 PM 95.0 °F 94.4 °F 59.0 °F 30% 29.83 in - East 5.8 mph - N/A   Unknown
8:00 PM 95 °F - 58 °F 19% 29.79 in - East 1.2 mph - -  
8:00 PM 95.0 °F 93.7 °F 57.2 °F 28% 29.86 in - East 1.2 mph - N/A   Unknown
9:00 PM 94 °F - 57 °F 20% 29.80 in - ESE 1.2 mph - -  
9:00 PM 95.0 °F 93.7 °F 57.2 °F 28% 29.86 in - ESE 1.2 mph - N/A   Unknown
10:00 PM 93.2 °F 91.9 °F 57.2 °F 30% 29.86 in - Calm Calm - N/A   Unknown
11:00 PM 90 °F - 59 °F 26% 29.79 in - Calm Calm - -  
11:00 PM 91.4 °F 90.7 °F 59.0 °F 34% 29.83 in - Calm Calm - N/A   Unknown